Starlink 35972

operational
NORAD ID: 66638 Int'l Des: 2025-271 Owner: SPXS Country: US Constellation: starlink
LEOCIRCULAR

About Starlink 35972

Description loading...

Live Position

Loading 3D Globe...

Upcoming Passes

Altitude History

Altitude vs Time

uPlot chart will show altitude changes over time

Two-Line Element Set

1 66638U 25271X 25338.00002315 -.01662822 00000-0 -90969-2 0 9992
2 66638 53.1560 230.0843 0000819 74.7905 30.3430 15.82225759 2844
Epoch: Dec 4, 2025 • Age: 29 hours

Current Status

Altitude 349.9 km
Velocity 7.70 km/s
Sub-Earth Point -40.01°S, 72.36°W
Launch Date Nov 23, 2025
Age 11 days
Type internet

Technical Details

Classification Payload
Mass 575.00 kg
Dry Mass 530.00 kg
Total Mass 575.00 kg
Length 0.30 m
Diameter 4.10 m
Span 29.00 m
Shape Box + pan
Manufacturer SPXS
Bus Type Starlink V2MO
Phase Status In Orbit
Owner/State SPXS/US

Large Constellations

Loading constellations...